C8053 Weather Reports


time (UTC)temp
C
wind
direction
speed
KPH
gust
KPH
rain 1hr
cm
rain 24hr
cm
rain mn
cm
humidity
%
barometer
mb
20260506203435 15 66 3.2 12.9 0.00 1.83 1.83 83 1011.8
20260506202935 15 53 1.6 12.9 0.00 1.83 1.83 83 1011.8
20260506201435 15 285 1.6 8.0 0.00 1.83 1.83 82 1011.7
20260506200436 15 61 4.8 11.3 0.00 1.83 1.83 82 1011.6
20260506195936 15 72 4.8 12.9 0.00 1.83 1.83 82 1011.5
20260506195437 15 189 4.8 9.7 0.00 1.83 1.83 82 1011.5
20260506194935 15 80 1.6 8.0 0.00 1.83 1.83 82 1011.4
20260506193936 15 16 0.0 11.3 0.00 1.83 1.83 82 1011.3
20260506192935 15 73 3.2 8.0 0.00 1.83 1.83 83 1011.2
20260506192435 15 17 3.2 8.0 0.00 1.83 1.83 83 1011.2
20260506191936 15 76 1.6 8.0 0.00 1.83 1.83 83 1011.1
20260506190936 15 173 0.0 4.8 0.00 1.83 1.83 83 1011.0
20260506190435 15 139 4.8 19.3 0.00 1.83 1.83 83 1010.9
20260506185935 15 58 4.8 11.3 0.00 1.83 1.83 84 1010.8
20260506185436 15 263 3.2 8.0 0.00 1.83 1.83 83 1010.7
20260506184935 15 152 4.8 11.3 0.00 1.83 1.83 84 1010.7
20260506183435 15 45 3.2 11.3 0.00 1.83 1.83 85 1010.5
20260506182435 15 17 1.6 11.3 0.00 1.83 1.83 85 1010.4
20260506181935 15 328 3.2 11.3 0.00 1.83 1.83 85 1010.4
20260506181442 15 26 3.2 14.5 0.00 1.83 1.83 85 1010.3
20260506180935 15 89 3.2 12.9 0.00 1.83 1.83 85 1010.2
20260506175935 15 39 8.0 16.1 0.00 1.83 1.83 85 1010.0
20260506175435 16 94 8.0 19.3 0.00 1.83 1.83 85 1010.0
20260506174935 16 131 3.2 16.1 0.00 1.83 1.83 85 1010.0
20260506174438 16 340 3.2 11.3 0.00 1.83 1.83 85 1010.0
20260506173935 16 79 3.2 11.3 0.00 1.83 1.83 85 1009.9
20260506172935 16 63 6.4 14.5 0.00 1.83 1.83 84 1009.9
20260506172435 16 18 3.2 8.0 0.00 1.83 1.83 83 1009.8
20260506171935 16 39 6.4 14.5 0.00 1.83 1.83 83 1009.8
20260506171435 16 338 3.2 12.9 0.00 1.83 1.83 83 1009.7
20260506170942 16 12 8.0 16.1 0.00 1.83 1.83 82 1009.8
20260506170435 16 16 1.6 19.3 0.00 1.83 1.83 82 1009.7
20260506165935 16 5 3.2 11.3 0.00 1.83 1.83 82 1009.6
20260506165435 17 14 3.2 9.7 0.00 1.83 1.83 81 1009.6
20260506164935 17 265 3.2 9.7 0.00 1.83 1.83 81 1009.6
20260506164435 17 258 3.2 12.9 0.00 1.83 1.83 82 1009.7
20260506163935 17 298 1.6 8.0 0.00 1.83 1.83 82 1009.7
20260506163436 16 349 3.2 16.1 0.00 1.83 1.83 82 1009.8
20260506162935 16 335 3.2 8.0 0.00 1.83 1.83 82 1009.8
20260506162435 17 70 4.8 12.9 0.00 1.83 1.83 82 1009.7
20260506161935 17 55 4.8 11.3 0.00 1.83 1.83 81 1009.7
20260506161435 17 11 3.2 11.3 0.00 1.83 1.83 82 1009.7
20260506160940 17 286 3.2 9.7 0.00 1.83 1.83 82 1009.7
20260506160438 17 285 3.2 8.0 0.00 1.83 1.83 83 1009.7
20260506155936 17 354 4.8 12.9 0.00 1.83 1.83 82 1009.7
20260506154935 17 261 3.2 12.9 0.00 1.83 1.83 81 1009.6
20260506154435 17 274 1.6 9.7 0.00 1.83 1.83 80 1009.6
20260506153942 17 169 4.8 12.9 0.00 1.83 1.83 80 1009.7
20260506153436 18 139 4.8 19.3 0.00 1.83 1.83 82 1009.7
20260506152935 18 336 3.2 12.9 0.00 1.83 1.83 81 1009.6
20260506152435 18 246 8.0 11.3 0.00 1.83 1.83 80 1009.6
20260506151935 18 236 4.8 19.3 0.00 1.83 1.83 81 1009.5
20260506151437 18 223 4.8 14.5 0.00 1.83 1.83 82 1009.6
20260506150935 18 139 8.0 14.5 0.00 1.83 1.83 81 1009.6
20260506150435 18 200 8.0 19.3 0.00 1.83 1.83 80 1009.5
20260506145936 18 271 4.8 16.1 0.00 1.83 1.83 79 1009.5
20260506145451 18 217 8.0 14.5 0.00 1.83 1.83 78 1009.4
20260506144935 18 279 8.0 24.1 0.00 1.83 1.83 81 1009.4
20260506144435 18 331 3.2 9.7 0.00 1.83 1.83 80 1009.5
20260506143939 18 10 3.2 12.9 0.00 1.83 1.83 82 1009.5
20260506143437 17 195 4.8 12.9 0.00 1.83 1.83 81 1009.5
20260506142936 17 36 4.8 12.9 0.00 1.83 1.83 81 1009.5
20260506141935 18 221 3.2 11.3 0.00 1.83 1.83 79 1009.6
20260506141435 18 227 6.4 12.9 0.00 1.83 1.83 79 1009.6
20260506140935 18 207 4.8 14.5 0.00 1.83 1.83 82 1009.6
20260506140435 18 231 3.2 12.9 0.00 1.83 1.83 80 1009.6
20260506135935 18 344 3.2 12.9 0.00 1.83 1.83 80 1009.7
20260506134935 18 303 4.8 11.3 0.00 1.83 1.83 78 1009.7
20260506134435 18 298 6.4 19.3 0.00 1.83 1.83 78 1009.8
20260506133435 18 267 4.8 19.3 0.00 1.83 1.83 80 1009.8
20260506132937 18 200 9.7 19.3 0.00 1.83 1.83 80 1009.9
20260506132435 18 283 4.8 16.1 0.00 1.83 1.83 81 1009.8
20260506131940 18 195 8.0 16.1 0.00 1.83 1.83 80 1009.8
20260506131436 18 159 6.4 16.1 0.00 1.83 1.83 80 1009.8
20260506130935 18 226 8.0 14.5 0.00 1.83 1.83 84 1009.7
20260506125935 18 213 4.8 11.3 0.00 1.83 1.83 83 1009.7
20260506125435 18 283 3.2 16.1 0.00 1.83 1.83 83 1009.8
20260506124935 18 244 8.0 20.9 0.00 1.83 1.83 83 1009.8
20260506124437 17 177 3.2 9.7 0.00 1.83 1.83 85 1009.7
20260506123935 17 218 8.0 16.1 0.00 1.83 1.83 85 1009.7
20260506123442 17 221 6.4 16.1 0.00 1.83 1.83 86 1009.6
20260506122435 17 198 11.3 20.9 0.00 1.83 1.83 85 1009.5
20260506121438 17 269 4.8 19.3 0.00 1.83 1.83 86 1009.4
20260506120935 17 251 3.2 11.3 0.00 1.83 1.83 86 1009.4
20260506115935 17 250 3.2 8.0 0.00 1.83 1.83 87 1009.4
20260506114935 17 348 3.2 11.3 0.00 1.83 1.83 87 1009.4
20260506114435 17 173 1.6 8.0 0.00 1.83 1.83 87 1009.4
20260506113935 17 239 6.4 16.1 0.00 1.83 1.83 87 1009.4
20260506112936 17 196 8.0 19.3 0.00 1.83 1.83 87 1009.4
20260506112435 17 208 9.7 20.9 0.00 1.83 1.83 86 1009.4
20260506111935 17 219 9.7 16.1 0.00 1.83 1.83 86 1009.4
20260506111435 17 187 4.8 14.5 0.00 1.83 1.83 86 1009.4
20260506110935 17 219 8.0 19.3 0.00 1.83 1.83 86 1009.4
20260506110435 17 219 9.7 14.5 0.00 1.83 1.83 85 1009.4
20260506105935 17 233 8.0 14.5 0.00 1.83 1.83 86 1009.5
20260506105435 17 154 8.0 14.5 0.00 1.83 1.83 86 1009.5
20260506104936 17 217 6.4 14.5 0.00 1.83 1.83 85 1009.5
20260506104436 17 231 4.8 12.9 0.00 1.83 1.83 85 1009.4
20260506103935 17 212 3.2 11.3 0.00 1.83 1.83 84 1009.4
20260506103436 17 203 3.2 11.3 0.00 1.83 1.83 85 1009.4
20260506102936 17 248 3.2 9.7 0.00 1.83 1.83 85 1009.4
20260506101938 17 18 1.6 11.3 0.00 1.83 1.83 85 1009.4
20260506101437 17 276 4.8 11.3 0.00 1.83 1.83 84 1009.4
20260506100437 17 130 3.2 12.9 0.00 1.83 1.83 85 1009.4
20260506095935 17 44 3.2 16.1 0.00 1.83 1.83 85 1009.4
20260506095436 17 60 4.8 11.3 0.00 1.83 1.83 85 1009.4
20260506094935 17 38 3.2 11.3 0.00 1.83 1.83 86 1009.4
20260506093437 17 212 4.8 12.9 0.00 1.85 1.83 88 1009.3
20260506092942 17 260 3.2 4.8 0.00 1.85 1.83 89 1009.3
20260506092435 16 193 3.2 11.3 0.00 1.85 1.83 90 1009.3
20260506091935 16 253 1.6 4.8 0.00 1.85 1.83 90 1009.3
20260506091437 16 241 1.6 4.8 0.00 1.85 1.83 90 1009.3
20260506090937 16 302 3.2 8.0 0.00 1.85 1.83 90 1009.2
20260506090437 16 232 1.6 12.9 0.00 1.85 1.83 90 1009.2
20260506085936 16 214 3.2 8.0 0.00 1.85 1.83 92 1009.1
20260506085435 15 235 4.8 12.9 0.00 1.85 1.83 93 1009.1
20260506084938 15 194 6.4 9.7 0.00 1.85 1.83 95 1009.0
20260506084438 15 198 3.2 11.3 0.00 1.85 1.83 96 1008.9
20260506083942 15 206 3.2 9.7 0.00 1.85 1.83 96 1008.9
20260506083435 15 194 6.4 12.9 0.00 1.85 1.83 96 1008.8
20260506082937 15 203 8.0 14.5 0.00 1.85 1.83 96 1008.8
20260506082435 15 195 8.0 14.5 0.00 1.85 1.83 96 1008.8
20260506081937 15 204 9.7 22.5 0.00 1.85 1.83 96 1008.7
20260506080936 16 230 8.0 20.9 0.00 1.85 1.83 97 1008.5
20260506080435 16 210 9.7 20.9 0.00 1.85 1.83 97 1008.6
20260506073435 16 225 11.3 27.4 0.18 1.85 1.83 97 1008.3
20260506072935 16 218 14.5 27.4 0.20 1.85 1.83 97 1008.2
20260506072440 16 210 14.5 24.1 0.23 1.85 1.83 97 1008.1
20260506071935 16 214 11.3 24.1 0.23 1.85 1.83 97 1008.1
20260506071435 16 211 16.1 25.7 0.23 1.85 1.83 96 1008.0
20260506062437 15 227 9.7 24.1 0.03 1.70 1.63 95 1007.5
20260506061435 15 117 6.4 20.9 0.00 1.83 1.60 95 1007.7
20260506060935 15 121 4.8 12.9 0.00 1.91 1.60 95 1007.7
20260506060437 15 92 6.4 16.1 0.00 1.93 1.60 96 1007.8
20260506044935 13 32 0.0 1.6 0.15 3.10 1.60 94 1007.9
20260506044436 13 14 1.6 4.8 0.15 3.15 1.60 94 1007.8
20260506043935 13 28 1.6 4.8 0.15 3.23 1.60 94 1008.1
20260506043435 13 55 0.0 0.0 0.15 3.33 1.60 94 1008.2
20260506042935 13 341 0.0 4.8 0.15 3.48 1.60 93 1008.3
20260506042435 13 341 3.2 9.7 0.15 3.53 1.60 93 1008.3
20260506041935 13 6 4.8 11.3 0.15 3.63 1.60 93 1008.5
20260506041435 13 347 3.2 8.0 0.15 3.73 1.57 93 1008.6
20260506040935 13 357 1.6 3.2 0.10 3.78 1.55 93 1009.0
20260506040436 13 33 0.0 1.6 0.05 3.81 1.50 93 1009.1
20260506035935 13 24 0.0 1.6 0.05 3.99 1.47 93 1008.8
20260506035435 13 143 0.0 3.2 0.03 3.99 1.45 93 1008.9
20260506034936 13 150 3.2 8.0 0.00 4.01 1.45 93 1008.8
20260506034435 12 10 4.8 9.7 0.03 4.09 1.45 93 1008.7
20260506033935 12 79 1.6 3.2 0.05 4.17 1.45 93 1008.6
20260506033435 12 12 0.0 9.7 0.05 4.19 1.45 94 1008.5
20260506032941 12 37 1.6 11.3 0.05 4.22 1.45 94 1008.5
20260506032435 12 303 1.6 8.0 0.05 4.27 1.45 94 1008.5
20260506031937 12 123 3.2 8.0 0.05 4.32 1.45 94 1008.4
20260506031437 12 27 1.6 4.8 0.13 4.39 1.45 94 1008.4
20260506030936 12 323 4.8 16.1 0.13 4.45 1.45 94 1008.5
20260506025435 12 346 4.8 11.3 0.23 4.52 1.45 95 1008.9
20260506024935 12 21 3.2 12.9 0.28 4.55 1.45 95 1009.1
20260506024435 12 98 3.2 14.5 0.33 4.55 1.42 95 1009.3
20260506023935 12 294 3.2 8.0 0.36 4.55 1.40 95 1009.5
20260506023435 12 11 1.6 3.2 0.41 4.57 1.40 95 1009.7
20260506022935 12 328 0.0 1.6 0.48 4.60 1.40 95 1009.7
20260506022436 12 335 0.0 9.7 0.53 4.62 1.37 95 1009.7
20260506021935 12 280 1.6 8.0 0.61 4.65 1.37 94 1009.8
20260506021435 12 328 3.2 8.0 0.76 4.62 1.32 94 1009.8
20260506020935 12 347 1.6 4.8 0.89 4.65 1.32 94 1009.8
20260506020435 12 5 3.2 8.0 0.91 4.65 1.30 94 1010.0
20260506015938 13 334 1.6 4.8 0.89 4.62 1.27 93 1010.0
20260506014435 13 344 3.2 14.5 0.76 4.50 1.09 93 1010.4
20260506013935 14 323 0.0 4.8 0.71 4.47 1.04 93 1010.5
20260506012936 14 203 1.6 4.8 0.61 4.37 0.91 94 1010.8
20260506012435 14 188 3.2 4.8 0.51 4.29 0.84 93 1010.8
20260506011950 14 169 4.8 4.8 0.46 4.22 0.76 93 1010.5
20260506011435 14 136 3.2 4.8 0.25 4.04 0.56 93 1010.4
20260506010937 14 17 0.0 1.6 0.15 3.91 0.43 93 1010.2
20260506010435 14 14 0.0 1.6 0.10 3.89 0.38 93 1010.1
20260506005936 14 354 0.0 0.0 0.10 3.91 0.38 93 1010.2
20260506005435 14 354 0.0 0.0 0.10 3.94 0.38 93 1010.2
20260506004935 15 3 0.0 3.2 0.05 3.91 0.33 93 1010.1
20260506004437 15 56 3.2 4.8 0.05 3.94 0.33 93 1010.4
20260506003935 15 226 1.6 4.8 0.05 3.91 0.33 93 1010.5
20260506003435 15 135 3.2 9.7 0.05 3.91 0.33 93 1010.5
20260506002436 15 340 0.0 1.6 0.05 3.91 0.33 93 1010.2
20260506001935 15 340 0.0 1.6 0.03 3.91 0.30 93 1010.2
20260506001435 15 340 0.0 1.6 0.03 3.91 0.30 91 1010.2
20260506000935 15 340 0.0 0.0 0.00 3.89 0.28 91 1010.3
20260506000435 15 340 0.0 0.0 0.00 3.89 0.28 91 1010.3
20260505235935 15 340 0.0 1.6 0.00 3.89 0.28 91 1010.4
20260505234435 15 35 0.0 0.0 0.00 3.89 0.28 90 1010.8
20260505233935 15 60 0.0 1.6 0.00 3.89 0.28 90 1011.0
20260505232938 15 30 0.0 1.6 0.00 3.89 0.28 90 1011.1
20260505232435 15 60 1.6 4.8 0.00 3.89 0.28 89 1011.2
20260505231937 15 37 1.6 4.8 0.05 3.89 0.28 89 1011.4
20260505231435 15 26 1.6 3.2 0.18 3.89 0.28 88 1011.4
20260505230935 15 205 0.0 3.2 0.28 3.89 0.28 88 1011.6
20260505230436 15 173 1.6 3.2 0.28 3.89 0.28 88 1011.6
20260505225935 15 138 3.2 4.8 0.28 3.89 0.28 88 1011.6
20260505225435 15 206 1.6 4.8 0.28 3.89 0.28 87 1011.5
20260505224935 15 222 1.6 8.0 0.28 3.89 0.28 87 1011.5
20260505224443 15 212 1.6 4.8 0.28 3.89 0.28 87 1011.6
20260505223935 15 184 3.2 8.0 0.28 3.89 0.28 86 1011.7
20260505223438 16 176 6.4 8.0 0.28 3.89 0.28 86 1011.8
20260505222935 16 167 8.0 11.3 0.28 3.89 0.28 86 1011.8
20260505222435 16 187 1.6 4.8 0.28 3.89 0.28 85 1011.9
20260505221935 16 215 1.6 4.8 0.23 3.81 0.23 85 1012.0
20260505221438 16 205 0.0 3.2 0.10 3.71 0.10 84 1011.9
20260505220935 16 196 0.0 3.2 0.00 3.61 0.00 83 1011.9
20260505215936 16 151 0.0 0.0 0.00 3.61 0.00 83 1011.9
20260505215435 16 109 1.6 1.6 0.00 3.61 3.61 83 1011.9
20260505214935 16 215 0.0 0.0 0.00 3.61 3.61 83 1012.0
20260505214435 16 215 1.6 3.2 0.00 3.61 3.61 83 1011.9
20260505213936 16 48 1.6 4.8 0.00 3.61 3.61 83 1012.2
20260505213435 16 164 1.6 4.8 0.00 3.61 3.61 82 1012.2
20260505212938 16 87 0.0 1.6 0.00 3.61 3.61 82 1012.2
20260505212436 16 129 0.0 4.8 0.00 3.61 3.61 82 1012.2
20260505211936 16 137 1.6 4.8 0.00 3.61 3.61 82 1012.2
20260505211438 16 123 1.6 3.2 0.00 3.61 3.61 82 1012.3
20260505210435 16 95 3.2 4.8 0.00 3.61 3.61 83 1012.3
20260505205935 16 58 3.2 8.0 0.00 3.61 3.61 83 1012.5
20260505205435 16 139 1.6 8.0 0.00 3.61 3.61 83 1012.4
20260505204935 16 28 0.0 4.8 0.00 3.61 3.61 84 1012.4
20260505204437 16 67 0.0 4.8 0.00 3.61 3.61 84 1012.5